Regional Weather Roundup
Issued by NWS Sterling, VA

Home | Current Version | Previous Version | Text Only | Print | Product List | Glossary On
Versions: 1 2 3 4 5 6 7 8 9 10 11 12 13 14 15 16 17 18 19 20 21 22 23 24 25 26 27 28
000
ASUS41 KLWX 240510
RWRLWX

REGIONAL WEATHER ROUNDUP
NATIONAL WEATHER SERVICE BALTIMORE MD/WASHINGTON DC
1200 AM EST FRI FEB 24 2017

Note: "FAIR" indicates few or no clouds below 12,000 feet
with no significant weather and/or obstructions to visibility.
 TC=TEMPERATURE CELSIUS

 * =Non NWS site. Station does not report precipitation (e.g. rain,
    snow, etc.), thunder, or fog.

DCZ001-MDZ009-015-VAZ040>042-051-053>054-240600-
WASHINGTON METRO

CITY           SKY/WX    TMP DP  RH WIND       PRES   REMARKS
WASHINGTON NAT PTCLDY    60  52  74 S12       29.90R
DULLES         PTCLDY    60  50  69 S7        29.89R
ANDREWS AFB    PTCLDY    59  51  73 S8        29.89S
FT BELVOIR     CLOUDY    53  48  84 CALM      29.90S
QUANTICO       PTCLDY    57  51  80 SW6       29.91S
COLLEGE PARK*  PTCLDY    54  46  76 CALM      29.89S
LEESBURG*      CLEAR     61  54  77 MISG      29.89S
MANASSAS*        N/A     51  48  89 CALM      29.90S
GAITHERSBURG*  CLEAR     63  48  59 S5        29.93S

$$

MDZ006>007-011-014-240600-
BALTIMORE METRO

CITY           SKY/WX    TMP DP  RH WIND       PRES   REMARKS
BWI AIRPORT    PTCLDY    54  49  83 CALM      29.89S
MD SCIENCE CTR   N/A     58  48  69 MISG      29.90S
MARTIN STATE   CLEAR     52  50  93 CALM      29.92S
ANNAPOLIS      CLEAR     53  49  86 S5        29.90S
FORT MEADE*    CLEAR     46  45  93 CALM      29.92S

$$

MDZ012-015-019>023-240600-
MARYLAND EASTERN SHORE

CITY           SKY/WX    TMP DP  RH WIND       PRES   REMARKS
OCEAN CITY     CLEAR     54  51  90 SW6       29.96S
SALISBURY      CLEAR     56  53  90 S7        29.94S
BAY BRIDGE AP* CLEAR     55  52  88 S10       29.91S
CAMBRIDGE*     CLEAR     55  52  88 S8        29.94R
EASTON*        CLEAR     59  53  79 SW8       29.96R

$$

MDZ017>025-240600-
SOUTHERN MARYLAND

CITY           SKY/WX    TMP DP  RH WIND       PRES   REMARKS
PATUXENT RIVER CLEAR     60  55  83 S9        29.92S
ST INIGOES     CLEAR     57  52  83 S8        29.92S
LEONARDTOWN*   CLEAR     59  52  77 S6        29.94R

$$

MDZ003>005-240600-
NORTH CENTRAL MARYLAND

CITY           SKY/WX    TMP DP  RH WIND       PRES   REMARKS
FREDERICK*     NOT AVBL
HAGERSTOWN APT PTCLDY    63  52  67 S10       29.86S
WESTMINSTER*   CLEAR     61  54  77 S6        29.89S

$$

MDZ501>502-240600-
WESTERN MARYLAND

CITY           SKY/WX    TMP DP  RH WIND       PRES   REMARKS
OAKLAND*       CLOUDY    52  48  87 S8        29.90S
CUMBERLAND*    CLOUDY    59  52  77 CALM      29.90S

$$

VAZ025>031-240600-
SHENANDOAH VALLEY

CITY           SKY/WX    TMP DP  RH WIND       PRES   REMARKS
WINCHESTER*    CLEAR     61  50  67 SW7       29.87S
FRONT ROYAL*   CLEAR     61  52  72 SW5       29.87S
LURAY*         CLEAR     54  52  94 CALM      29.89S
NEW MARKET*    CLEAR     50  46  85 CALM      29.88F
STAUNTON*      CLEAR     50  47  90 CALM      29.92S
WAYNESBORO*    CLEAR     55  49  82 S7        29.91S

$$

WVZ021-048>050-054>055-240600-
EASTERN WEST VIRGINIA PANHANDLE

CITY           SKY/WX    TMP DP  RH WIND       PRES   REMARKS
MARTINSBURG    CLEAR     59  50  72 S6        29.85S
PETERSBURG*    PTCLDY    51  48  89 CALM      29.88S

$$

VAZ036>039-050-240600-
CENTRAL FOOTHILLS

CITY           SKY/WX    TMP DP  RH WIND       PRES   REMARKS
CHARLOTTESVILL CLEAR     60  51  72 S3        29.90S
CULPEPER*      CLEAR     54  50  87 SW3       29.91S
ORANGE*        CLEAR     50  46  87 CALM      29.92S
GORDONSVILLE*  CLEAR     50  49  95 SW3       29.90S
WARRENTON*     PTCLDY    53  47  79 CALM      29.89S

$$

VAZ055>057-240600-
NORTH AND CENTRAL PIEDMONT

CITY           SKY/WX    TMP DP  RH WIND       PRES   REMARKS
FREDERICKSBRG* PTCLDY    62  53  73 S8        29.90S
STAFFORD*      PTCLDY    58  51  78 S3        29.94F

$$

NCZ024-NYZ072-PAZ021-071-VAZ022-071-240600-
OTHER REGIONAL OBSERVATIONS

CITY           SKY/WX    TMP DP  RH WIND       PRES   REMARKS
NEW YORK CITY  PTCLDY    63  51  65 VRB6      29.92R
PHILADELPHIA   PTCLDY    57  50  77 SW5       29.92R
PITTSBURGH     CLOUDY    58  53  84 S3        29.81F
ROANOKE        CLEAR     59  50  72 CALM      29.93S
RICHMOND       CLEAR     56  53  90 S7        29.93R
RALEIGH        PTCLDY    59  51  75 SE5       29.93S

$$

ANZ530>537-240600-
MARINE OBSERVATIONS

STATION/POSITION TIME  TEMP    WIND        PRES
                       AIR SEA DIR/SP/G
                 (UTC) (F)     (DEG/KT/KT) (MB)
THOMAS PT LIGHT  0500   49 44  190/  9/  9   N/A
BALT KEY BRIDGE  0448   54     110/  2/  2 1012.4R
COVE POINT       0448   48     170/  8/ 11 1013.7R
LEWISETTA        0448   59 45  200/  6/  8 1013.1R
SOLOMONS ISLAND  0448   56 45  180/  9/ 10   N/A
PINEY POINT      0448          150/  7/  8   N/A

$$





USA.gov is the U.S. government's official web portal to all federal, state and local government web resources and services.